This demonstration page uses our WeatherBlox Daily Observations layout. Learn more.

Left ArrowRight Arrow

Hourly Observations for March 3, 2020

Temp ( °F °C ) Dew Point ( °F °C ) Humidity (%) Winds ( mph kmh ) Pressure ( in mb ) Visibility ( mi km ) Precip ( " mm )
12:53 am 00:53 Clear 34 1.1 22 -5.6 61 61 W 9 15 29.62 1003 10 16 N/A
1:53 am 01:53 Clear 37 2.8 22 -5.6 54 54 SW 16 26 29.58 1002 10 16 N/A
2:53 am 02:53 Cloudy 38 3.3 23 -5 55 55 SW 18 30 29.54 1001 10 16 N/A
3:53 am 03:53 Cloudy 38 3.3 23 -5 55 55 SW 15 24 29.54 1000 10 16 N/A
4:53 am 04:53 Mostly Cloudy 38 3.3 24 -4.4 57 57 SW 14 22 29.53 1000 10 16 N/A
5:53 am 05:53 Mostly Clear 37 2.8 26 -3.3 65 65 SW 14 22 29.54 1000 10 16 N/A
6:53 am 06:53 Clear 36 2.2 27 -2.8 70 70 WNW 6 9 29.58 1002 10 16 N/A
7:53 am 07:53 Sunny 40 4.4 28 -2.2 63 63 WNW 15 24 29.60 1003 10 16 N/A
8:53 am 08:53 Partly Cloudy 45 7.2 28 -2.2 52 52 WNW 24 39 29.63 1004 10 16 N/A
9:53 am 09:53 Mostly Sunny 49 9.4 28 -2.2 44 44 W 30 48 29.67 1005 10 16 N/A
10:53 am 10:53 Mostly Sunny 51 10.6 20 -6.7 29 29 WNW 38 61 29.69 1006 10 16 N/A
11:53 am 11:53 Partly Cloudy 52 11.1 21 -6.1 30 30 NW 31 50 29.72 1006 10 16 N/A
12:53 pm 12:53 Sunny 51 10.6 24 -4.4 35 35 NW 22 35 29.75 1008 10 16 N/A
1:53 pm 13:53 Sunny 51 10.6 23 -5 33 33 NNW 16 26 29.75 1008 10 16 N/A
2:53 pm 14:53 Sunny 50 10 26 -3.3 39 39 NNW 15 24 29.78 1008 10 16 N/A
3:53 pm 15:53 Sunny 49 9.4 24 -4.4 38 38 N 8 13 29.78 1008 10 16 N/A
4:53 pm 16:53 Sunny 47 8.3 24 -4.4 41 41 NNE 8 13 29.79 1009 10 16 N/A
5:53 pm 17:53 Sunny 39 3.9 24 -4.4 55 55 E 8 13 29.81 1010 10 16 N/A
6:53 pm 18:53 Mostly Clear 35 1.7 23 -5 61 61 E 3 6 29.82 1010 10 16 N/A
7:53 pm 19:53 Clear 34 1.1 23 -5 64 64 SSE 3 6 29.80 1009 10 16 N/A
8:53 pm 20:53 Clear 34 1.1 22 -5.6 61 61 SW 10 17 29.78 1008 10 16 N/A
9:53 pm 21:53 Clear 36 2.2 21 -6.1 55 55 SW 10 17 29.75 1007 10 16 N/A
10:53 pm 22:53 Clear 39 3.9 20 -6.7 46 46 SW 16 26 29.71 1006 10 16 N/A
11:53 pm 23:53 Clear 35 1.7 21 -6.1 57 57 WSW 12 19 29.68 1005 10 16 N/A

Powered by AerisWeather